User: anonymous   Login
Location: Unspecified
(0.0000°N, 0.0000°E)
Time: 19:18:40
(UTC+02:00)
Language:

CZ-4 DEB - Orbit

View from above orbital plane
View from above orbital plane
View from above satellite
View from above satellite

Ground track
Ground track

The orbit data is extracted from the following two-line orbital elements,

1 29508U 06046D   16208.69041273  .00019121  00000-0  32574-3 0  9997
2 29508  97.6458 251.5880 0003811 109.3036 250.8628 15.51425464535112
Epoch (UTC): 26 July 2016 16:34:11
Eccentricity: 0.0003811
inclination: 97.6458°
perigee height: 410 km
apogee height: 415 km
right ascension of ascending node: 251.5880°
argument of perigee: 109.3036°
revolutions per day: 15.51425464
mean anomaly at epoch: 250.8628°
orbit number at epoch: 53511

The dashed part of the orbit path shows where the satellite is in the earth's shadow,  

DLR